Regional Weather Roundup
Issued by NWS Cleveland, OH

Home | Current Version | Previous Version | Graphics & Text | Print | Product List | Glossary On
Versions: 1 2 3 4 5 6 7 8 9 10 11 12 13 14 15 16 17 18 19 20 21 22 23 24 25 26 27 28 29 30 31 32 33 34 35 36 37 38 39 40 41 42 43 44 45 46 47 48 49 50
000
ASUS41 KCLE 011400
RWRCLE
OHIO REGIONAL WEATHER ROUNDUP
NATIONAL WEATHER SERVICE WILMINGTON, OH
1000 AM EDT SUN MAY 01 2016

NOTE: "FAIR" INDICATES FEW OR NO CLOUDS BELOW 12,000 FEET WITH NO
SIGNIFICANT WEATHER AND/OR OBSTRUCTIONS TO VISIBILITY.

OHZ001>008-015>018-024>027-034-035-043-044-011500-
   NORTHWEST OHIO

CITY           SKY/WX    TMP DP  RH WIND       PRES   REMARKS
DEFIANCE       CLOUDY    53  49  86 NE3       29.95R
FINDLAY        CLOUDY    55  52  89 CALM      29.93S FOG
TOLEDO EXPRESS FOG       50  49  96 NE6       29.94R VSB 3/4
TOLEDO EXEC    FOG       50  49  96 NE6       29.95R VSB 1/4
LIMA           FOG       56  56 100 CALM      29.93R VSB 1/2
$$

OHZ009>014-019>023-028>033-038-089-011500-
   NORTHEAST OHIO

CITY           SKY/WX    TMP DP  RH WIND       PRES   REMARKS
CLE-HOPKINS    CLOUDY    58  56  93 SW7       29.95R
CLE-LAKEFRONT  CLOUDY    57  55  93 W6        29.92R
CUY CO. ARPT   FOG       57  57 100 W7        29.93R VSB 1
LORAIN-ELYRIA  CLOUDY    56  54  93 W6        29.93S FOG
ASHTABULA      CLOUDY    57  56  96 SW3       29.92S
AKRON-CANTON   CLOUDY    61  59  93 SW9       29.94R FOG
WOOSTER        NOT AVBL
MANSFIELD      CLOUDY    62  60  93 W7        29.93S
YOUNGSTOWN     FOG       61  58  90 SW9       29.93R VSB 1
$$

OHZ042-051>053-060>062-070>072-077>081-011500-
  SOUTHWEST OHIO

CITY           SKY/WX    TMP DP  RH WIND       PRES   REMARKS
CINC-COVINGTON PTSUNNY   68  63  84 S7        29.92F
CINC-LUNKEN    FAIR      68  64  87 S7        29.94S
HAMILTON       FAIR      68  63  84 CALM      29.94S
DAYTON         NOT AVBL
WRIGHT-PAT AFB NOT AVBL
DAYTON GENERAL CLOUDY    65  62  90 S8        29.93S
WILMINGTON     PTSUNNY   65  62  90 SW6       29.95R
$$

OHZ036-037-039>041-045>050-054>059-063>069-073>076-082>088-011500-
  CENTRAL AND SOUTHEAST OHIO

CITY           SKY/WX    TMP DP  RH WIND       PRES   REMARKS
COLUMBUS       CLOUDY    60  60 100 SW6       29.95R
OSU AIRPORT    CLOUDY    63  61  93 S7        29.95R
BOLTON FIELD   NOT AVBL
RICKENBACK AFB NOT AVBL
NEWARK         CLOUDY    66  60  81 SW7       29.95R
MARION         CLOUDY    63  59  87 W6        29.94R FOG
LANCASTER      CLOUDY    63  60  90 S3        29.96S
ZANESVILLE     CLOUDY    65  60  84 SW6       29.96R
NEW PHILLY     CLOUDY    61  59  93 W3        29.95S
$$



USA.gov is the U.S. government's official web portal to all federal, state and local government web resources and services.